Weather reports worldwide

Advertisment
Fair Isle, United Kingdom (3008): temperature & dewpoint: 12.08.2017 00:00:00 - 18.08.2017 00:00:00 (BST)Fair Isle, United Kingdom (3008): temperature -20cm & temperature -100cm: 12.08.2017 00:00:00 - 18.08.2017 00:00:00 (BST)Fair Isle, United Kingdom (3008): wind speed & gusts: 12.08.2017 00:00:00 - 18.08.2017 00:00:00 (BST)Fair Isle, United Kingdom (3008): wind direction: 12.08.2017 00:00:00 - 18.08.2017 00:00:00 (BST)Fair Isle, United Kingdom (3008): reduced air pressure: 12.08.2017 00:00:00 - 18.08.2017 00:00:00 (BST)Fair Isle, United Kingdom (3008): visibility: 12.08.2017 00:00:00 - 18.08.2017 00:00:00 (BST)Fair Isle, United Kingdom (3008): precipitation: 12.08.2017 00:00:00 - 18.08.2017 00:00:00 (BST)
Date & Time tt [°C] td [°C] tt -20cm [°C] tt -100cm [°C] ff [km/h] ff [kn] fx [km/h] fx [kn] dd ppp [hPa] vv [km] rr [mm]
18.08.2017 00:00:00 - - - - - - - - - - - -
17.08.2017 23:00:00 13,0 12,4 - - 11 6 - - SSE 1001,9 10 0,2
17.08.2017 22:00:00 12,7 12,2 - - 9 5 - - S 1001,7 12 0,0
17.08.2017 21:00:00 - - - - - - - - - - - -
17.08.2017 20:00:00 13,9 12,3 - - 11 6 - - S 1001,4 16 0,0
17.08.2017 19:00:00 - - - - - - - - - - - -
17.08.2017 18:00:00 14,3 12,0 - - 24 13 - - S 1001,1 21 0,0
17.08.2017 17:00:00 14,5 12,2 - - 16 9 - - SSE 1001,1 23 0,0
17.08.2017 16:00:00 14,3 11,9 - - 13 7 - - SSE 1001,2 17 0,0
17.08.2017 15:00:00 15,3 12,5 - - 21 11 - - S 1001,2 18 0,0
17.08.2017 14:00:00 14,9 11,9 - - 21 11 - - S 1001,2 19 0,0
17.08.2017 13:00:00 15,7 13,3 - - 16 9 - - S 1001,0 13 0,0
17.08.2017 12:00:00 15,0 13,1 - - 16 9 - - S 1001,1 26 0,0
17.08.2017 11:00:00 14,6 12,7 - - 16 9 - - SSE 1000,9 12 -
17.08.2017 10:00:00 14,7 12,5 14,2 13,0 21 11 - - S 1000,7 17 -
17.08.2017 09:00:00 14,0 13,6 - - 18 10 - - S 1000,9 12 -
17.08.2017 08:00:00 12,9 12,7 - - 18 10 - - S 1000,7 9 -
17.08.2017 07:00:00 12,9 12,7 - - 16 9 - - S 1000,3 6 -
17.08.2017 06:00:00 13,0 12,7 - - 28 15 - - S 1000,4 7 -
17.08.2017 05:00:00 13,1 12,7 - - 28 15 - - SSE 1000,9 8 -
17.08.2017 04:00:00 13,2 12,6 - - 31 17 - - SSE 1001,4 10 -
17.08.2017 03:00:00 13,3 12,3 - - 31 17 46 25 SSE 1002,1 9 -
17.08.2017 02:00:00 13,5 12,3 - - 34 18 52 28 SSE 1002,3 0,3 0,0
17.08.2017 01:00:00 13,5 12,2 - - 39 21 55 30 SSE 1002,8 10 0,0
17.08.2017 00:00:00 13,1 12,4 - - 41 22 57 31 SSE 1003,5 9 0,2
16.08.2017 23:00:00 13,4 12,0 - - 41 22 57 31 SSE 1004,1 12 0,0
16.08.2017 22:00:00 13,3 11,7 - - 39 21 59 32 SSE 1004,6 14 0,0
16.08.2017 21:00:00 13,2 11,9 - - 42 23 55 30 SSE 1005,3 14 0,0
16.08.2017 20:00:00 13,1 12,1 - - 39 21 54 29 SE 1006,0 12 0,0
16.08.2017 19:00:00 13,4 11,8 - - 42 23 59 32 SSE 1006,7 13 0,0
16.08.2017 18:00:00 13,5 12,2 - - 42 23 57 31 SSE 1007,6 13 0,0
16.08.2017 17:00:00 13,5 12,4 - - 39 21 50 27 SSE 1008,5 17 0,0
16.08.2017 16:00:00 13,3 12,3 - - 34 18 46 25 SSE 1009,3 14 0,0
16.08.2017 15:00:00 13,7 11,8 - - 31 17 - - SSE 1010,0 25 0,0
16.08.2017 14:00:00 13,3 11,8 - - 24 13 - - SE 1010,6 40 0,0
16.08.2017 13:00:00 13,1 11,4 - - 24 13 - - SSE 1011,4 19 0,0
16.08.2017 12:00:00 13,9 12,3 - - 21 11 - - SSE 1011,8 20 0,0
16.08.2017 11:00:00 13,8 12,6 - - 22 12 - - S 1011,9 26 0,0
16.08.2017 10:00:00 13,2 11,8 14,2 13,0 18 10 - - S 1012,0 20 0,0
16.08.2017 09:00:00 13,0 11,6 - - 21 11 - - SSW 1012,0 27 0,0
16.08.2017 08:00:00 12,6 11,5 - - 21 11 - - SSW 1011,8 20 0,0
16.08.2017 07:00:00 12,1 11,0 - - 21 11 - - SSW 1011,7 20 0,0
16.08.2017 06:00:00 11,8 11,1 - - 21 11 - - SSW 1011,3 18 -
16.08.2017 05:00:00 11,8 11,1 - - 21 11 - - SW 1011,0 16 0,0
16.08.2017 04:00:00 12,0 11,1 - - 26 14 - - SW 1010,7 22 0,0
16.08.2017 03:00:00 11,8 10,9 - - 29 16 - - SW 1010,7 30 0,0
16.08.2017 02:00:00 12,2 11,5 - - 15 8 - - SSW 1010,2 18 0,0
16.08.2017 01:00:00 12,3 11,0 - - 18 10 - - SW 1010,3 23 0,0
16.08.2017 00:00:00 12,1 11,3 - - 18 10 - - SW 1009,9 30 0,0
15.08.2017 23:00:00 11,9 11,3 - - 16 9 - - SW 1009,7 0,3 0,0
15.08.2017 22:00:00 12,0 11,7 - - 18 10 - - SSW 1009,2 24 0,6
15.08.2017 21:00:00 12,4 11,8 - - 26 14 - - SSW 1009,0 6 0,8
15.08.2017 20:00:00 12,6 11,7 - - 16 9 - - S 1008,4 30 0,0
15.08.2017 19:00:00 13,1 12,2 - - 15 8 - - S 1007,9 35 0,6
15.08.2017 18:00:00 12,7 11,6 - - 18 10 - - SSW 1007,7 9 1,2
15.08.2017 17:00:00 14,0 12,2 - - 22 12 - - SSW 1007,2 23 0,0
15.08.2017 16:00:00 14,2 12,0 - - 24 13 - - SW 1006,7 24 0,0
15.08.2017 15:00:00 14,3 12,2 - - 24 13 - - WSW 1006,3 18 0,0
15.08.2017 14:00:00 13,9 12,8 - - 28 15 - - SW 1005,9 17 0,0
15.08.2017 13:00:00 13,3 12,9 - - 26 14 - - WSW 1005,2 19 0,0
15.08.2017 12:00:00 12,7 12,6 - - 24 13 - - WSW 1004,2 14 0,2
15.08.2017 11:00:00 12,4 12,3 - - 21 11 - - W 1003,9 13 0,2
15.08.2017 10:00:00 12,4 12,4 14,2 13,2 18 10 - - W 1003,6 7 1,2
15.08.2017 09:00:00 12,0 12,0 - - 28 15 - - WNW 1003,4 7 11,0
15.08.2017 08:00:00 12,9 12,9 - - 5 3 - - SW 1004,0 2,6 8,2
15.08.2017 07:00:00 12,6 12,5 - - 11 6 - - SE 1004,7 0,1 3,6
15.08.2017 06:00:00 12,7 12,5 - - 18 10 - - SSE 1005,6 2,6 0,0
15.08.2017 05:00:00 12,8 12,6 - - 18 10 - - SSE 1006,2 6 0,2
15.08.2017 04:00:00 12,9 12,7 - - 24 13 - - S 1006,6 9 0,2
15.08.2017 03:00:00 13,1 12,8 - - 29 16 - - SSE 1007,0 8 0,2
15.08.2017 02:00:00 13,0 12,7 - - 29 16 - - SSE 1007,6 8 0,0
15.08.2017 01:00:00 13,0 12,7 - - 37 20 46 25 SSE 1008,1 8 0,2
15.08.2017 00:00:00 12,9 12,6 - - 31 17 48 26 SE 1008,7 8 0,0
14.08.2017 23:00:00 12,9 12,5 - - 35 19 50 27 SE 1009,1 8 0,0
14.08.2017 22:00:00 13,1 12,3 - - 41 22 52 28 SE 1009,4 7 0,0
14.08.2017 21:00:00 13,1 11,7 - - 35 19 54 29 SE 1009,9 12 0,0
14.08.2017 20:00:00 13,2 11,0 - - 34 18 57 31 SE 1010,1 14 0,0
14.08.2017 19:00:00 13,0 10,8 - - 31 17 52 28 SE 1010,5 12 0,0
14.08.2017 18:00:00 13,1 11,2 - - 34 18 52 28 SE 1011,1 16 0,2
14.08.2017 17:00:00 12,6 11,6 - - 28 15 54 29 SE 1011,7 13 0,8
14.08.2017 16:00:00 12,4 11,8 - - 37 20 54 29 SE 1012,6 7 1,0
14.08.2017 15:00:00 12,3 11,9 - - 28 15 48 26 SE 1013,3 9 1,4
14.08.2017 14:00:00 12,5 12,1 - - 31 17 46 25 SE 1014,0 8 1,0
14.08.2017 13:00:00 12,8 12,1 - - 37 20 55 30 SE 1014,5 8 0,2
14.08.2017 12:00:00 13,5 11,8 - - 28 15 - - SE 1014,6 20 0,0
14.08.2017 11:00:00 13,0 11,9 - - 22 12 - - SE 1015,1 20 0,0
14.08.2017 10:00:00 12,9 11,9 14,5 13,2 22 12 - - SE 1015,5 19 0,0
14.08.2017 09:00:00 12,8 11,2 - - 18 10 - - SE 1015,7 35 0,0
14.08.2017 08:00:00 12,5 11,4 - - 21 11 - - SE 1015,8 35 0,0
14.08.2017 07:00:00 12,2 11,0 - - 15 8 - - SE 1016,1 40 0,0
14.08.2017 06:00:00 11,7 10,9 - - 13 7 - - SE 1016,3 40 0,0
14.08.2017 05:00:00 11,5 10,8 - - 5 3 - - SE 1016,4 40 0,0
14.08.2017 04:00:00 11,4 10,3 - - 9 5 - - SSE 1016,9 45 0,0
14.08.2017 03:00:00 10,2 8,4 - - 13 7 - - SSE 1017,3 50 0,0
14.08.2017 02:00:00 9,9 9,0 - - 13 7 - - S 1017,5 50 0,0
14.08.2017 01:00:00 9,7 8,9 - - 11 6 - - S 1017,9 40 0,0
14.08.2017 00:00:00 10,0 8,9 - - 8 4 - - S 1018,0 45 0,0
13.08.2017 23:00:00 10,1 9,3 - - 8 4 - - S 1018,1 40 0,0
13.08.2017 22:00:00 9,7 8,1 - - 9 5 - - S 1018,2 40 0,0
13.08.2017 21:00:00 10,3 7,5 - - 9 5 - - SW 1017,9 40 0,0
13.08.2017 20:00:00 12,3 7,9 - - 11 6 - - WSW 1017,7 35 0,0
13.08.2017 19:00:00 12,9 8,8 - - 13 7 - - W 1017,5 35 0,0
13.08.2017 18:00:00 13,1 8,8 - - 16 9 - - W 1017,2 45 0,0
13.08.2017 17:00:00 12,8 9,3 - - 16 9 - - WSW 1017,2 19 0,0
13.08.2017 16:00:00 13,1 9,3 - - 22 12 - - W 1017,1 30 0,0
13.08.2017 15:00:00 13,9 9,8 - - 22 12 - - W 1016,7 19 0,0
13.08.2017 14:00:00 13,1 8,7 - - 26 14 - - W 1016,4 35 0,0
13.08.2017 13:00:00 13,2 9,2 - - 28 15 - - W 1016,0 27 0,0
13.08.2017 12:00:00 13,3 8,7 - - 28 15 - - W 1015,7 28 0,0
13.08.2017 11:00:00 12,2 9,3 - - 22 12 - - WSW 1015,5 22 0,0
13.08.2017 10:00:00 11,7 9,0 14,5 13,2 28 15 - - WSW 1015,0 19 0,0
13.08.2017 09:00:00 12,0 8,9 - - 26 14 - - W 1014,5 35 0,0
13.08.2017 08:00:00 12,0 8,9 - - 24 13 - - W 1013,9 27 0,0
13.08.2017 07:00:00 11,0 8,4 - - 18 10 46 25 W 1013,6 40 0,2
13.08.2017 06:00:00 11,4 8,8 - - 22 12 - - W 1013,3 24 0,0
13.08.2017 05:00:00 11,2 8,2 - - 21 11 - - W 1013,3 35 0,0
13.08.2017 04:00:00 11,3 9,0 - - 24 13 - - W 1013,1 25 0,0
13.08.2017 03:00:00 11,0 9,4 - - 28 15 - - WSW 1013,1 28 0,6
13.08.2017 02:00:00 11,1 9,0 - - 24 13 - - SW 1013,3 40 0,0
13.08.2017 01:00:00 11,0 8,4 - - 16 9 - - WSW 1013,6 35 0,0
13.08.2017 00:00:00 10,9 8,1 - - 16 9 - - W 1013,8 30 0,0
12.08.2017 23:00:00 11,0 6,9 - - 15 8 - - W 1013,9 30 0,0
12.08.2017 22:00:00 11,3 7,8 - - 15 8 - - W 1013,9 45 0,0
12.08.2017 21:00:00 11,5 8,8 - - 11 6 - - W 1013,8 35 0,0
12.08.2017 20:00:00 11,7 8,7 - - 16 9 - - W 1013,5 23 0,0
12.08.2017 19:00:00 12,5 9,1 - - 13 7 - - WNW 1013,1 28 0,0
12.08.2017 18:00:00 12,9 9,0 - - 15 8 - - WNW 1013,1 21 0,0
12.08.2017 17:00:00 12,9 8,7 - - 18 10 - - WNW 1012,9 25 0,0
12.08.2017 16:00:00 13,1 9,3 - - 16 9 - - WNW 1012,6 22 0,0
12.08.2017 15:00:00 13,1 9,3 - - 15 8 - - NW 1012,3 25 0,0
12.08.2017 14:00:00 13,1 9,9 - - 18 10 - - NW 1011,9 25 0,0
12.08.2017 13:00:00 12,5 9,7 - - 16 9 - - NW 1011,5 27 0,0
12.08.2017 12:00:00 12,2 9,4 - - 21 11 - - WNW 1011,1 35 0,0
12.08.2017 11:00:00 12,7 9,4 - - 21 11 - - WNW 1010,6 30 0,0
12.08.2017 10:00:00 12,7 9,2 14,4 13,2 15 8 - - WNW 1010,0 30 0,0
12.08.2017 09:00:00 12,3 8,9 - - 11 6 - - NW 1009,5 30 0,0
12.08.2017 08:00:00 11,9 8,8 - - 16 9 - - NW 1009,0 30 0,0
12.08.2017 07:00:00 11,7 9,5 - - 13 7 - - NW 1008,5 20 0,0
12.08.2017 06:00:00 11,4 9,3 - - 11 6 - - WNW 1007,8 22 0,0
12.08.2017 05:00:00 11,4 9,1 - - 18 10 - - WNW 1007,3 24 0,0
12.08.2017 04:00:00 11,2 9,1 - - 16 9 - - NW 1006,9 19 0,0
12.08.2017 03:00:00 11,6 9,8 - - 16 9 - - NW 1006,7 17 0,0
12.08.2017 02:00:00 11,6 9,9 - - 16 9 - - WNW 1006,3 23 0,0
12.08.2017 01:00:00 11,4 10,2 - - 16 9 - - NW 1005,8 19 0,2
12.08.2017 00:00:00 11,7 10,3 - - 16 9 - - WNW 1005,2 13 0,0

tt = temperature
td = dewpoint
tt -20cm = temperature -20cm
tt -100cm = temperature -100cm
ff = wind speed
fx = gusts
dd = wind direction
ppp = reduced air pressure
vv = visibility
rr = precipitation

Next stations